Weather in Aktal

Russia / Altai Republic     49˚55′09″N   88˚53′35″E
temp.,
°C
wind,
m/s
gust,
m/s
humid.,
%
clouds,
%
prec.,
mm/h
press.,
hPa
HPBL,
m
16 january, sat
sat1601:00−31˚nnw01760 0.0 105019
04:00−32˚nnw017018 0.0 104819
07:00−31˚w016212 0.0 104719
10:00−27˚wnw015888 0.0 104519
13:00−22˚wsw116085 0.0 104052
16:00−20˚wnw017096 0.0 103723
19:00−23˚ne014177 0.0 103620
22:00−22˚nnw013838 0.0 103420
17 january, sun
sun1701:00−22˚wnw013838 0.0 103120
04:00−21˚wnw013889 0.0 102820
07:00−22˚nw013886 0.0 102620
10:00−20˚nw013852 0.0 102320
13:00−14˚w115875 0.0 101830
16:00−13˚wnw014777 0.0 101721
19:00−13˚w114788 0.0 101821
22:00−17˚n114211 0.0 102120
18 january, mon
mon1801:00−19˚ne11425 0.0 102120
04:00−20˚ene014236 0.0 102220
07:00−21˚ne114532 0.0 102120
10:00−20˚sse01470 0.0 102020
13:00−15˚wsw11630 0.0 101729
16:00−16˚wnw01600 0.0 101620
19:00−20˚ne11500 0.0 101820
22:00−21˚nne01480 0.0 101820
19 january, tue
tue1901:00−20˚nne11480 0.0 101820
04:00−21˚n00524 0.0 101820
07:00−21˚nne01532 0.0 101820
10:00−20˚ese005915 0.0 101920
13:00−15˚wsw116836 0.0 101778
16:00−16˚nw017948 0.0 101820
19:00−19˚ne119124 0.0 102220
22:00−20˚ne119413 0.0 102420
20 january, wed
wed2001:00−21˚nne11968 0.0 102520
04:00−21˚ne019712 0.0 102520
07:00−19˚nw019139 0.0 102320
10:00−16˚ene1178100 0.0 102320
13:00−12˚ssw0172100 0.0 101937
16:00−12˚se1166100 0.0 101821
19:00−15˚ne1171100 0.0 102221
22:00−16˚e1273100 0.0 102420